Regional Weather Roundup
Issued by NWS

Home | Current Version | Previous Version | Graphics & Text | Print | Product List | Glossary On
Versions: 1 2 3 4 5 6 7 8 9 10 11 12 13 14 15 16 17 18 19 20 21 22 23 24 25 26 27 28
000
ASUS45 KCYS 240510
RWRWY

WYOMING REGIONAL WEATHER ROUNDUP
NATIONAL WEATHER SERVICE CHEYENNE WY
1100 PM MDT SUN JUL 23 2017

NOTE:  "FAIR" INDICATES FEW OR NO CLOUDS BELOW 12,000 FEET
WITH NO SIGNIFICANT WEATHER AND/OR OBSTRUCTIONS TO VISIBILITY.

WYZ001-240600-
YELLOWSTONE NATIONAL PARK

CITY           SKY/WX    TMP DP  RH WIND       PRES   REMARKS
LK YELLOWSTONE   N/A     50  39  66 CALM      30.28F
W YELLOWSTONE  NOT AVBL

$$
WYZ002>013-054>058-071-098>099-240600-
NORTHERN WYOMING

CITY           SKY/WX    TMP DP  RH WIND       PRES   REMARKS
JACKSON        FAIR      55  45  67 N6        30.17R
CODY           FAIR      72  39  30 S7        30.03F
GREYBULL       FAIR      79  32  18 SW6       29.89F
WORLAND        FAIR      69  39  33 SW8       29.92S
SHERIDAN       FAIR      68  46  45 S9        29.92F
BUFFALO        FAIR      73  39  29 NW9       30.01S
GILLETTE         N/A     74  54  49 S15       30.00R HAZE
HULETT         FAIR      77  46  33 E7        29.96F
NEWCASTLE      FAIR      81  45  28 E17G31    29.97F

$$
WYZ014>020-022>026-101>103-240600-
CENTRAL WYOMING

CITY           SKY/WX    TMP DP  RH WIND       PRES   REMARKS
BIG PINEY      FAIR      60  40  47 CALM      30.24R
PINEDALE       FAIR      55  41  58 W5        30.24F
DUBOIS         FAIR      61  32  33 CALM      30.22S
LANDER         FAIR      76  30  18 SW14      30.08S
RIVERTON       FAIR      75  30  19 NW14      30.06R
CASPER         FAIR      66  40  38 SW6       30.01S
DOUGLAS        FAIR      75  45  34 SE10      30.00F

$$
WYZ021-027>030-104>119-240600-
SOUTHERN WYOMING

CITY           SKY/WX    TMP DP  RH WIND       PRES   REMARKS
EVANSTON       FAIR      64  42  44 SE8       30.25R
KEMMERER         N/A     66  32  28 N8        30.26S
FORT BRIDGER   FAIR      68  37  32 W10       30.26S
ROCK SPRINGS   FAIR      72  33  24 SW10      30.20R
RAWLINS        FAIR      71  23  16 NW9       30.17R
SARATOGA       FAIR      64  36  34 SE3       30.21R
LARAMIE        FAIR      64  47  53 S10       30.22F
CHEYENNE       FAIR      72  46  39 S17G24    30.17S
TORRINGTON     FAIR      74  48  39 SE9       30.00S
PINE BLUFFS    FAIR      75  43  31 S18G29    30.12S

$$




USA.gov is the U.S. government's official web portal to all federal, state and local government web resources and services.